Time,TemperatureF,DewpointF,PressureIn,WindDirection,WindDirectionDegrees,WindSpeedMPH,WindSpeedGustMPH,Humidity,HourlyPrecipIn,Conditions,Clouds,dailyrainin,SoftwareType,DateUTC
2013-01-31 00:05:00,73.6,65.2,29.64,SW,225,3.1,3.1,75,0.00,,---,0.00,VWS V13.01,2013-01-31 05:05:00,
2013-01-31 00:10:00,73.6,65.2,29.64,South,180,4.0,4.5,75,0.00,,---,0.00,VWS V13.01,2013-01-31 05:10:00,
2013-01-31 00:15:00,73.6,65.2,29.64,South,180,4.0,4.0,75,0.00,,---,0.00,VWS V13.01,2013-01-31 05:15:00,
2013-01-31 00:20:00,73.6,65.2,29.64,South,180,4.9,4.9,75,0.00,,---,0.00,VWS V13.01,2013-01-31 05:20:00,
2013-01-31 00:25:00,73.6,65.2,29.64,SSW,202,0.9,4.9,75,0.00,,---,0.00,VWS V13.01,2013-01-31 05:25:00,
2013-01-31 00:30:00,73.6,65.2,29.64,SSW,202,4.9,4.9,75,0.00,,---,0.00,VWS V13.01,2013-01-31 05:30:00,
2013-01-31 00:40:00,73.4,65.4,29.63,SSW,202,8.3,8.3,76,0.00,,---,0.00,VWS V13.01,2013-01-31 05:40:00,
2013-01-31 00:50:00,73.2,65.2,29.63,South,180,3.4,6.9,76,0.00,,---,0.00,VWS V13.01,2013-01-31 05:50:00,
2013-01-31 00:55:00,73.2,65.2,29.63,SSW,202,0.9,3.4,76,0.00,,---,0.00,VWS V13.01,2013-01-31 05:55:00,
2013-01-31 01:05:00,73.2,65.2,29.64,SSW,202,0.9,0.9,76,0.00,,---,0.00,VWS V13.01,2013-01-31 06:05:00,
2013-01-31 01:10:00,73.2,65.2,29.64,WSW,248,1.6,1.8,76,0.00,,---,0.00,VWS V13.01,2013-01-31 06:10:00,
2013-01-31 01:20:00,72.9,64.9,29.64,SW,225,3.6,4.0,76,0.00,,---,0.00,VWS V13.01,2013-01-31 06:20:00,
2013-01-31 01:30:00,72.7,65.1,29.64,SW,225,0.0,3.1,77,0.00,,---,0.00,VWS V13.01,2013-01-31 06:30:00,
2013-01-31 01:40:00,72.5,64.9,29.64,SW,225,0.0,0.0,77,0.00,,---,0.00,VWS V13.01,2013-01-31 06:40:00,
2013-01-31 01:45:00,72.3,64.7,29.64,SSW,202,0.7,4.0,77,0.00,,---,0.00,VWS V13.01,2013-01-31 06:45:00,
2013-01-31 01:55:00,72.3,64.7,29.63,SSW,202,1.3,5.4,77,0.00,,---,0.00,VWS V13.01,2013-01-31 06:55:00,
2013-01-31 02:00:00,72.3,64.7,29.63,SSW,202,3.4,3.4,77,0.00,,---,0.00,VWS V13.01,2013-01-31 07:00:00,
2013-01-31 02:10:00,72.3,65.1,29.63,South,180,3.6,4.0,78,0.00,,---,0.00,VWS V13.01,2013-01-31 07:10:00,
2013-01-31 02:20:00,72.3,65.1,29.63,SSW,202,1.3,3.8,78,0.00,,---,0.00,VWS V13.01,2013-01-31 07:20:00,
2013-01-31 02:30:00,72.3,65.1,29.62,SSW,202,5.4,5.4,78,0.00,,---,0.00,VWS V13.01,2013-01-31 07:30:00,
2013-01-31 02:35:00,72.3,65.1,29.62,South,180,2.7,5.4,78,0.00,,---,0.00,VWS V13.01,2013-01-31 07:35:00,
2013-01-31 02:45:00,72.1,64.9,29.62,SSW,202,3.6,4.0,78,0.00,,---,0.00,VWS V13.01,2013-01-31 07:45:00,
2013-01-31 02:55:00,72.1,64.9,29.61,South,180,5.8,5.8,78,0.00,,---,0.00,VWS V13.01,2013-01-31 07:55:00,
2013-01-31 03:00:00,72.1,64.9,29.61,SSW,202,5.1,5.8,78,0.00,,---,0.00,VWS V13.01,2013-01-31 08:00:00,
2013-01-31 03:10:00,72.1,64.9,29.60,South,180,5.6,5.6,78,0.00,,---,0.00,VWS V13.01,2013-01-31 08:10:00,
2013-01-31 03:15:00,72.1,65.3,29.60,SSW,202,7.4,7.4,79,0.00,,---,0.00,VWS V13.01,2013-01-31 08:15:00,
2013-01-31 03:25:00,72.1,65.3,29.60,SSW,202,7.4,7.4,79,0.00,,---,0.00,VWS V13.01,2013-01-31 08:25:00,
2013-01-31 03:35:00,72.1,65.3,29.61,SW,225,2.0,2.9,79,0.00,,---,0.00,VWS V13.01,2013-01-31 08:35:00,
2013-01-31 03:40:00,72.1,65.3,29.61,SSW,202,2.0,2.0,79,0.00,,---,0.00,VWS V13.01,2013-01-31 08:40:00,
2013-01-31 03:50:00,72.0,65.1,29.61,SW,225,1.1,3.4,79,0.00,,---,0.00,VWS V13.01,2013-01-31 08:50:00,
2013-01-31 03:55:00,72.0,65.1,29.61,SSW,202,0.9,2.5,79,0.00,,---,0.00,VWS V13.01,2013-01-31 08:55:00,
2013-01-31 04:00:00,72.0,65.1,29.61,SW,225,1.6,2.9,79,0.00,,---,0.00,VWS V13.01,2013-01-31 09:00:00,
2013-01-31 04:10:00,71.8,64.9,29.61,SW,225,2.5,2.5,79,0.00,,---,0.00,VWS V13.01,2013-01-31 09:10:00,
2013-01-31 04:15:00,71.8,64.9,29.61,South,180,3.6,3.6,79,0.00,,---,0.00,VWS V13.01,2013-01-31 09:15:00,
2013-01-31 04:25:00,71.8,64.9,29.60,SSW,202,4.0,4.0,79,0.00,,---,0.00,VWS V13.01,2013-01-31 09:25:00,
2013-01-31 04:35:00,71.4,64.6,29.60,SSW,202,5.8,5.8,79,0.00,,---,0.00,VWS V13.01,2013-01-31 09:35:00,
2013-01-31 04:45:00,71.4,64.9,29.60,SSW,202,4.0,4.0,80,0.00,,---,0.00,VWS V13.01,2013-01-31 09:45:00,
2013-01-31 04:55:00,71.4,64.9,29.61,SW,225,4.5,4.5,80,0.00,,---,0.00,VWS V13.01,2013-01-31 09:55:00,
2013-01-31 05:00:00,71.4,64.9,29.61,South,180,1.8,4.5,80,0.00,,---,0.00,VWS V13.01,2013-01-31 10:00:00,
2013-01-31 05:10:00,71.4,64.9,29.61,SSW,202,2.0,2.2,80,0.00,,---,0.00,VWS V13.01,2013-01-31 10:10:00,
2013-01-31 05:15:00,71.4,64.9,29.61,SW,225,1.8,2.0,80,0.00,,---,0.00,VWS V13.01,2013-01-31 10:15:00,
2013-01-31 05:20:00,71.4,64.9,29.61,SSW,202,2.2,2.2,80,0.00,,---,0.00,VWS V13.01,2013-01-31 10:20:00,
2013-01-31 05:30:00,71.4,64.9,29.61,SSW,202,4.0,4.0,80,0.00,,---,0.00,VWS V13.01,2013-01-31 10:30:00,
2013-01-31 05:40:00,71.4,65.3,29.61,SSW,202,0.7,4.3,81,0.00,,---,0.00,VWS V13.01,2013-01-31 10:40:00,
2013-01-31 05:45:00,71.4,65.3,29.61,SSW,202,0.0,0.7,81,0.00,,---,0.00,VWS V13.01,2013-01-31 10:45:00,
2013-01-31 05:55:00,71.4,65.3,29.62,SW,225,0.4,3.4,81,0.00,,---,0.00,VWS V13.01,2013-01-31 10:55:00,
2013-01-31 06:00:00,71.4,65.3,29.62,SSW,202,2.2,2.2,81,0.00,,---,0.00,VWS V13.01,2013-01-31 11:00:00,
2013-01-31 06:10:00,71.4,65.3,29.62,SSW,202,2.0,2.9,81,0.00,,---,0.00,VWS V13.01,2013-01-31 11:10:00,
2013-01-31 06:20:00,71.4,65.3,29.62,SSW,202,18.8,18.8,81,0.00,,---,0.00,VWS V13.01,2013-01-31 11:20:00,
2013-01-31 06:25:00,71.4,65.3,29.62,South,180,0.0,18.8,81,0.00,,---,0.00,VWS V13.01,2013-01-31 11:25:00,
2013-01-31 06:35:00,71.4,65.3,29.63,SSW,202,2.9,2.9,81,0.00,,---,0.00,VWS V13.01,2013-01-31 11:35:00,
2013-01-31 06:45:00,71.4,65.3,29.63,SSW,202,2.7,3.1,81,0.00,,---,0.00,VWS V13.01,2013-01-31 11:45:00,
2013-01-31 06:50:00,71.4,65.3,29.63,SSW,202,3.8,3.8,81,0.00,,---,0.00,VWS V13.01,2013-01-31 11:50:00,
2013-01-31 07:00:00,71.4,65.3,29.63,SW,225,1.1,3.8,81,0.00,,---,0.00,VWS V13.01,2013-01-31 12:00:00,
2013-01-31 07:10:00,71.4,65.3,29.64,SSW,202,1.6,6.3,81,0.00,,---,0.00,VWS V13.01,2013-01-31 12:10:00,
2013-01-31 07:20:00,71.8,65.6,29.64,SSW,202,3.8,3.8,81,0.00,,---,0.00,VWS V13.01,2013-01-31 12:20:00,
2013-01-31 07:25:00,71.8,65.6,29.64,SW,225,1.6,3.8,81,0.00,,---,0.00,VWS V13.01,2013-01-31 12:25:00,
2013-01-31 07:30:00,71.8,65.6,29.64,SSW,202,2.5,2.7,81,0.00,,---,0.00,VWS V13.01,2013-01-31 12:30:00,
2013-01-31 07:40:00,72.0,65.8,29.65,SW,225,1.1,2.0,81,0.00,,---,0.00,VWS V13.01,2013-01-31 12:40:00,
2013-01-31 07:45:00,72.0,65.8,29.65,SW,225,2.5,5.1,81,0.00,,---,0.00,VWS V13.01,2013-01-31 12:45:00,
2013-01-31 07:55:00,72.3,66.2,29.65,SW,225,0.4,6.3,81,0.00,,---,0.00,VWS V13.01,2013-01-31 12:55:00,
2013-01-31 08:00:00,72.7,66.5,29.66,WSW,248,5.1,5.1,81,0.00,,---,0.00,VWS V13.01,2013-01-31 13:00:00,
2013-01-31 08:05:00,73.0,66.9,29.67,WSW,248,2.7,5.1,81,0.00,,---,0.00,VWS V13.01,2013-01-31 13:05:00,
2013-01-31 08:15:00,72.9,66.0,29.68,NNW,338,6.3,6.3,79,0.00,,---,0.00,VWS V13.01,2013-01-31 13:15:00,
2013-01-31 08:25:00,70.9,62.6,29.70,NNW,338,7.2,7.2,75,0.00,,---,0.00,VWS V13.01,2013-01-31 13:25:00,
2013-01-31 08:30:00,70.9,62.6,29.70,NNW,338,3.6,7.2,75,0.00,,---,0.00,VWS V13.01,2013-01-31 13:30:00,
2013-01-31 08:40:00,68.9,61.4,29.72,North,0,2.0,4.0,77,0.00,,---,0.00,VWS V13.01,2013-01-31 13:40:00,
2013-01-31 08:50:00,68.4,60.9,29.72,NW,315,0.0,2.0,77,0.00,,---,0.00,VWS V13.01,2013-01-31 13:50:00,
2013-01-31 08:55:00,68.2,60.7,29.72,NE,45,10.1,10.1,77,0.00,,---,0.00,VWS V13.01,2013-01-31 13:55:00,
2013-01-31 09:05:00,67.8,60.0,29.73,NNW,338,8.1,8.1,76,0.00,,---,0.00,VWS V13.01,2013-01-31 14:05:00,
2013-01-31 09:10:00,67.5,59.6,29.73,WNW,292,6.5,8.1,76,0.00,,---,0.00,VWS V13.01,2013-01-31 14:10:00,
2013-01-31 09:20:00,66.9,58.8,29.74,NW,315,2.0,2.9,75,0.00,,---,0.00,VWS V13.01,2013-01-31 14:20:00,
2013-01-31 09:30:00,66.9,58.8,29.73,NNW,338,4.7,4.7,75,0.00,,---,0.00,VWS V13.01,2013-01-31 14:30:00,
2013-01-31 09:35:00,66.9,58.8,29.74,West,270,3.1,4.7,75,0.00,,---,0.00,VWS V13.01,2013-01-31 14:35:00,
2013-01-31 09:45:00,67.1,58.5,29.74,North,0,5.4,5.4,74,0.00,,---,0.00,VWS V13.01,2013-01-31 14:45:00,
2013-01-31 09:55:00,66.9,58.4,29.75,North,0,3.1,9.4,74,0.00,,---,0.00,VWS V13.01,2013-01-31 14:55:00,
2013-01-31 10:05:00,67.6,59.1,29.75,NNW,338,2.2,2.2,74,0.00,,---,0.00,VWS V13.01,2013-01-31 15:05:00,
2013-01-31 10:15:00,67.8,58.9,29.75,West,270,2.9,9.6,73,0.00,,---,0.00,VWS V13.01,2013-01-31 15:15:00,
2013-01-31 10:25:00,67.6,57.9,29.76,NNW,338,2.7,8.5,71,0.00,,---,0.00,VWS V13.01,2013-01-31 15:25:00,
2013-01-31 10:35:00,67.6,57.9,29.76,NNW,338,7.2,7.2,71,0.00,,---,0.00,VWS V13.01,2013-01-31 15:35:00,
2013-01-31 10:45:00,67.3,57.6,29.76,NNW,338,5.4,5.4,71,0.00,,---,0.00,VWS V13.01,2013-01-31 15:45:00,
2013-01-31 10:55:00,67.3,57.2,29.76,NNW,338,8.7,8.7,70,0.00,,---,0.00,VWS V13.01,2013-01-31 15:55:00,
2013-01-31 11:05:00,67.8,57.7,29.76,NW,315,6.0,6.0,70,0.00,,---,0.00,VWS V13.01,2013-01-31 16:05:00,
2013-01-31 11:10:00,67.8,57.7,29.76,North,0,2.9,6.0,70,0.00,,---,0.00,VWS V13.01,2013-01-31 16:10:00,
2013-01-31 11:15:00,67.8,57.7,29.76,NNE,22,5.6,5.6,70,0.00,,---,0.00,VWS V13.01,2013-01-31 16:15:00,
2013-01-31 11:25:00,67.8,57.3,29.75,NE,45,6.7,6.7,69,0.00,,---,0.00,VWS V13.01,2013-01-31 16:25:00,
2013-01-31 11:30:00,68.2,58.0,29.75,NNW,338,4.7,6.7,70,0.00,,---,0.00,VWS V13.01,2013-01-31 16:30:00,
2013-01-31 11:35:00,68.2,57.6,29.75,NNE,22,8.3,8.3,69,0.00,,---,0.00,VWS V13.01,2013-01-31 16:35:00,
2013-01-31 11:45:00,67.8,57.3,29.76,NNW,338,6.5,9.8,69,0.00,,---,0.00,VWS V13.01,2013-01-31 16:45:00,
2013-01-31 11:55:00,68.5,58.0,29.75,West,270,1.3,7.6,69,0.00,,---,0.00,VWS V13.01,2013-01-31 16:55:00,
2013-01-31 12:05:00,69.8,58.4,29.75,NNE,22,5.1,5.1,67,0.00,,---,0.00,VWS V13.01,2013-01-31 17:05:00,
2013-01-31 12:15:00,70.0,58.1,29.74,North,0,6.0,6.0,66,0.00,,---,0.00,VWS V13.01,2013-01-31 17:15:00,
2013-01-31 12:20:00,69.8,57.9,29.74,NW,315,0.7,6.0,66,0.00,,---,0.00,VWS V13.01,2013-01-31 17:20:00,
2013-01-31 12:25:00,69.6,57.8,29.74,NW,315,0.7,0.7,66,0.00,,---,0.00,VWS V13.01,2013-01-31 17:25:00,
2013-01-31 12:35:00,69.6,57.8,29.73,North,0,8.1,8.1,66,0.00,,---,0.00,VWS V13.01,2013-01-31 17:35:00,
2013-01-31 12:45:00,69.4,56.8,29.74,NNE,22,2.0,6.9,64,0.00,,---,0.00,VWS V13.01,2013-01-31 17:45:00,
2013-01-31 12:50:00,69.4,56.3,29.73,NW,315,0.7,2.5,63,0.00,,---,0.00,VWS V13.01,2013-01-31 17:50:00,
2013-01-31 13:00:00,69.4,55.9,29.73,North,0,5.1,7.8,62,0.00,,---,0.00,VWS V13.01,2013-01-31 18:00:00,
2013-01-31 13:05:00,69.4,55.9,29.73,North,0,5.1,5.1,62,0.00,,---,0.00,VWS V13.01,2013-01-31 18:05:00,
2013-01-31 13:10:00,69.1,55.5,29.73,North,0,1.1,7.2,62,0.00,,---,0.00,VWS V13.01,2013-01-31 18:10:00,
2013-01-31 13:20:00,69.3,54.8,29.72,North,0,0.7,8.7,60,0.00,,---,0.00,VWS V13.01,2013-01-31 18:20:00,
2013-01-31 13:30:00,69.3,54.8,29.71,NNW,338,8.7,8.7,60,0.00,,---,0.00,VWS V13.01,2013-01-31 18:30:00,
2013-01-31 13:40:00,69.3,53.9,29.71,North,0,7.4,7.4,58,0.00,,---,0.00,VWS V13.01,2013-01-31 18:40:00,
2013-01-31 13:50:00,68.9,53.5,29.71,NNW,338,3.1,7.4,58,0.00,,---,0.00,VWS V13.01,2013-01-31 18:50:00,
2013-01-31 14:00:00,68.5,53.2,29.71,West,270,0.0,7.4,58,0.00,,---,0.00,VWS V13.01,2013-01-31 19:00:00,
2013-01-31 14:05:00,68.5,53.2,29.71,North,0,6.5,6.5,58,0.00,,---,0.00,VWS V13.01,2013-01-31 19:05:00,
2013-01-31 14:15:00,68.5,52.7,29.71,NNE,22,0.2,0.2,57,0.00,,---,0.00,VWS V13.01,2013-01-31 19:15:00,
2013-01-31 14:25:00,68.4,52.5,29.71,North,0,6.7,6.7,57,0.00,,---,0.00,VWS V13.01,2013-01-31 19:25:00,
2013-01-31 14:35:00,67.8,52.5,29.71,North,0,1.3,8.5,58,0.00,,---,0.00,VWS V13.01,2013-01-31 19:35:00,
2013-01-31 14:45:00,67.8,53.0,29.72,NNW,338,3.1,9.2,59,0.00,,---,0.00,VWS V13.01,2013-01-31 19:45:00,
2013-01-31 14:55:00,67.6,53.3,29.71,NW,315,0.0,6.5,60,0.00,,---,0.00,VWS V13.01,2013-01-31 19:55:00,
2013-01-31 15:00:00,67.3,53.4,29.72,NNW,338,1.1,11.4,61,0.00,,---,0.00,VWS V13.01,2013-01-31 20:00:00,
2013-01-31 15:10:00,67.3,53.8,29.71,NNW,338,2.0,11.9,62,0.00,,---,0.00,VWS V13.01,2013-01-31 20:10:00,
2013-01-31 15:20:00,67.1,53.7,29.71,NNW,338,5.8,5.8,62,0.00,,---,0.00,VWS V13.01,2013-01-31 20:20:00,
2013-01-31 15:25:00,67.1,53.7,29.72,NW,315,4.0,5.8,62,0.00,,---,0.00,VWS V13.01,2013-01-31 20:25:00,
2013-01-31 15:35:00,66.9,53.5,29.72,NNW,338,1.6,4.3,62,0.00,,---,0.00,VWS V13.01,2013-01-31 20:35:00,
2013-01-31 15:40:00,66.9,53.5,29.72,NNE,22,6.7,6.7,62,0.00,,---,0.00,VWS V13.01,2013-01-31 20:40:00,
2013-01-31 15:50:00,67.1,53.7,29.72,North,0,0.7,4.9,62,0.00,,---,0.00,VWS V13.01,2013-01-31 20:50:00,
2013-01-31 15:55:00,67.3,53.8,29.73,North,0,6.5,6.5,62,0.00,,---,0.00,VWS V13.01,2013-01-31 20:55:00,
2013-01-31 16:05:00,67.3,53.8,29.73,NNW,338,1.8,6.3,62,0.00,,---,0.00,VWS V13.01,2013-01-31 21:05:00,
2013-01-31 16:10:00,67.6,54.2,29.73,North,0,5.8,5.8,62,0.00,,---,0.00,VWS V13.01,2013-01-31 21:10:00,
2013-01-31 16:20:00,67.8,53.4,29.73,North,0,5.6,5.6,60,0.00,,---,0.00,VWS V13.01,2013-01-31 21:20:00,
2013-01-31 16:30:00,67.6,53.3,29.74,NNW,338,3.6,13.2,60,0.00,,---,0.00,VWS V13.01,2013-01-31 21:30:00,
2013-01-31 16:40:00,67.5,52.7,29.73,NE,45,7.4,7.4,59,0.00,,---,0.00,VWS V13.01,2013-01-31 21:40:00,
2013-01-31 16:50:00,67.3,52.0,29.74,NW,315,3.4,3.4,58,0.00,,---,0.00,VWS V13.01,2013-01-31 21:50:00,
2013-01-31 17:00:00,67.3,51.5,29.74,NW,315,2.0,22.2,57,0.00,,---,0.00,VWS V13.01,2013-01-31 22:00:00,
2013-01-31 17:05:00,67.3,51.5,29.74,NW,315,2.0,2.0,57,0.00,,---,0.00,VWS V13.01,2013-01-31 22:05:00,
2013-01-31 17:15:00,66.9,50.7,29.75,North,0,4.0,7.2,56,0.00,,---,0.00,VWS V13.01,2013-01-31 22:15:00,
2013-01-31 17:25:00,66.7,51.0,29.74,NNE,22,4.0,4.0,57,0.00,,---,0.00,VWS V13.01,2013-01-31 22:25:00,
2013-01-31 17:30:00,66.6,50.9,29.75,North,0,24.6,24.6,57,0.00,,---,0.00,VWS V13.01,2013-01-31 22:30:00,
2013-01-31 17:40:00,66.2,51.0,29.74,NNE,22,1.1,5.6,58,0.00,,---,0.00,VWS V13.01,2013-01-31 22:40:00,
2013-01-31 17:45:00,66.0,50.8,29.75,North,0,0.9,3.1,58,0.00,,---,0.00,VWS V13.01,2013-01-31 22:45:00,
2013-01-31 17:55:00,66.2,51.0,29.75,North,0,18.6,18.6,58,0.00,,---,0.00,VWS V13.01,2013-01-31 22:55:00,
2013-01-31 18:00:00,66.4,51.2,29.75,North,0,17.9,18.6,58,0.00,,---,0.00,VWS V13.01,2013-01-31 23:00:00,
2013-01-31 18:05:00,66.2,51.5,29.75,North,0,20.8,20.8,59,0.00,,---,0.00,VWS V13.01,2013-01-31 23:05:00,
2013-01-31 18:15:00,66.4,51.6,29.76,NE,45,19.2,19.2,59,0.00,,---,0.00,VWS V13.01,2013-01-31 23:15:00,
2013-01-31 18:25:00,66.4,51.6,29.76,NE,45,0.4,14.8,59,0.00,,---,0.00,VWS V13.01,2013-01-31 23:25:00,
2013-01-31 18:35:00,66.4,51.6,29.76,NNE,22,18.3,18.3,59,0.00,,---,0.00,VWS V13.01,2013-01-31 23:35:00,
2013-01-31 18:40:00,66.4,51.6,29.76,NE,45,17.7,22.6,59,0.00,,---,0.00,VWS V13.01,2013-01-31 23:40:00,
2013-01-31 18:50:00,66.4,52.1,29.77,NE,45,22.6,22.6,60,0.00,,---,0.00,VWS V13.01,2013-01-31 23:50:00,
2013-01-31 18:55:00,66.4,52.1,29.77,NE,45,20.1,22.6,60,0.00,,---,0.00,VWS V13.01,2013-01-31 23:55:00,
2013-01-31 19:05:00,66.4,52.5,29.77,NE,45,25.7,25.7,61,0.00,,---,0.00,VWS V13.01,2013-02-01 00:05:00,
2013-01-31 19:10:00,66.4,52.5,29.77,NE,45,18.8,25.7,61,0.00,,---,0.00,VWS V13.01,2013-02-01 00:10:00,
2013-01-31 19:15:00,66.4,52.5,29.77,NE,45,19.7,19.7,61,0.00,,---,0.00,VWS V13.01,2013-02-01 00:15:00,
2013-01-31 19:25:00,66.0,52.2,29.77,NE,45,14.5,16.3,61,0.00,,---,0.00,VWS V13.01,2013-02-01 00:25:00,
2013-01-31 19:35:00,66.0,52.2,29.77,North,0,0.0,21.9,61,0.00,,---,0.00,VWS V13.01,2013-02-01 00:35:00,
2013-01-31 19:45:00,66.0,52.6,29.77,North,0,21.5,21.5,62,0.00,,---,0.00,VWS V13.01,2013-02-01 00:45:00,
2013-01-31 19:55:00,66.0,52.6,29.78,North,0,18.6,18.6,62,0.00,,---,0.00,VWS V13.01,2013-02-01 00:55:00,
2013-01-31 20:05:00,66.0,53.1,29.79,North,0,19.2,23.7,63,0.00,,---,0.00,VWS V13.01,2013-02-01 01:05:00,
2013-01-31 20:15:00,66.0,53.1,29.79,NNW,338,11.9,14.5,63,0.00,,---,0.00,VWS V13.01,2013-02-01 01:15:00,
2013-01-31 20:25:00,66.0,52.6,29.79,North,0,1.3,19.9,62,0.00,,---,0.00,VWS V13.01,2013-02-01 01:25:00,
2013-01-31 20:30:00,65.8,52.5,29.79,NNE,22,0.4,6.5,62,0.00,,---,0.00,VWS V13.01,2013-02-01 01:30:00,
2013-01-31 20:40:00,65.7,52.7,29.79,WNW,292,19.2,20.4,63,0.00,,---,0.00,VWS V13.01,2013-02-01 01:40:00,
2013-01-31 20:45:00,65.8,52.9,29.79,NW,315,18.6,19.2,63,0.00,,---,0.00,VWS V13.01,2013-02-01 01:45:00,
2013-01-31 20:55:00,65.5,52.6,29.79,NNW,338,18.1,18.1,63,0.00,,---,0.00,VWS V13.01,2013-02-01 01:55:00,
2013-01-31 21:00:00,65.3,52.4,29.80,WNW,292,16.1,22.8,63,0.00,,---,0.00,VWS V13.01,2013-02-01 02:00:00,
2013-01-31 21:10:00,65.1,52.2,29.80,North,0,1.3,8.1,63,0.00,,---,0.00,VWS V13.01,2013-02-01 02:10:00,
2013-01-31 21:20:00,64.6,51.3,29.81,NNW,338,4.0,20.4,62,0.00,,---,0.00,VWS V13.01,2013-02-01 02:20:00,
2013-01-31 21:30:00,64.2,48.7,29.81,NNE,22,11.4,11.4,57,0.00,,---,0.00,VWS V13.01,2013-02-01 02:30:00,
2013-01-31 21:40:00,64.0,47.1,29.82,NNW,338,1.1,2.0,54,0.00,,---,0.00,VWS V13.01,2013-02-01 02:40:00,
2013-01-31 21:45:00,64.0,47.1,29.82,NW,315,4.7,4.7,54,0.00,,---,0.00,VWS V13.01,2013-02-01 02:45:00,
2013-01-31 21:55:00,63.3,45.4,29.82,NW,315,22.2,22.2,52,0.00,,---,0.00,VWS V13.01,2013-02-01 02:55:00,
2013-01-31 22:00:00,63.3,44.9,29.82,NNW,338,0.7,22.2,51,0.00,,---,0.00,VWS V13.01,2013-02-01 03:00:00,
2013-01-31 22:10:00,63.0,44.6,29.82,NNW,338,4.0,7.4,51,0.00,,---,0.00,VWS V13.01,2013-02-01 03:10:00,
2013-01-31 22:15:00,62.6,43.2,29.83,NNW,338,4.9,6.0,49,0.00,,---,0.00,VWS V13.01,2013-02-01 03:15:00,
2013-01-31 22:25:00,62.6,44.2,29.83,NNW,338,11.9,12.3,51,0.00,,---,0.00,VWS V13.01,2013-02-01 03:25:00,
2013-01-31 22:35:00,62.4,43.5,29.83,North,0,20.4,20.4,50,0.00,,---,0.00,VWS V13.01,2013-02-01 03:35:00,
2013-01-31 22:45:00,62.2,42.9,29.83,NNW,338,0.9,3.8,49,0.00,,---,0.00,VWS V13.01,2013-02-01 03:45:00,
2013-01-31 22:55:00,61.9,42.5,29.83,NNW,338,2.9,2.9,49,0.00,,---,0.00,VWS V13.01,2013-02-01 03:55:00,
2013-01-31 23:00:00,61.7,42.4,29.83,NNW,338,2.2,6.0,49,0.00,,---,0.00,VWS V13.01,2013-02-01 04:00:00,
2013-01-31 23:10:00,61.5,41.7,29.83,NNW,338,0.7,1.6,48,0.00,,---,0.00,VWS V13.01,2013-02-01 04:10:00,
2013-01-31 23:20:00,61.3,41.5,29.82,North,0,4.3,6.3,48,0.00,,---,0.00,VWS V13.01,2013-02-01 04:20:00,
2013-01-31 23:30:00,61.0,41.2,29.82,NNW,338,5.4,10.7,48,0.00,,---,0.00,VWS V13.01,2013-02-01 04:30:00,
2013-01-31 23:40:00,61.0,41.7,29.82,NW,315,1.1,1.1,49,0.00,,---,0.00,VWS V13.01,2013-02-01 04:40:00,
2013-01-31 23:50:00,60.6,41.4,29.81,NW,315,0.9,4.9,49,0.00,,---,0.00,VWS V13.01,2013-02-01 04:50:00,
2013-01-31 23:55:00,60.4,41.2,29.81,NW,315,2.9,3.6,49,0.00,,---,0.00,VWS V13.01,2013-02-01 04:55:00,